Regional Weather Roundup
Issued by NWS Sioux Falls, SD

Home | Current Version | Previous Version | Graphics & Text | Print | Product List | Glossary Off
Versions: 1 2 3 4 5 6 7 8 9 10 11 12 13 14 15 16 17 18 19 20 21 22 23 24 25 26 27 28 29 30 31 32 33 34 35 36 37 38 39 40 41 42 43 44 45 46 47 48 49 50

000
ASUS43 KFSD 300002
RWRFSD

WEATHER ROUNDUP FOR SE SOUTH DAKOTA/SW MINNESOTA/NW IOWA
NATIONAL WEATHER SERVICE SIOUX FALLS SD
700 PM CDT MON JUN 29 2015

NOTE: "FAIR" INDICATES FEW OR NO CLOUDS BELOW 12,000 FEET WITH NO
SIGNIFICANT WEATHER AND OR OBSTRUCTIONS TO VISIBILITY.


SDZ038>040-050-052>070-300100-
SOUTHEAST SOUTH DAKOTA

CITY           SKY/WX    TMP DP  RH WIND       PRES   REMARKS
BROOKINGS      SUNNY     81  63  54 NW6       29.90F
CHAMBERLAIN    NOT AVBL
HURON          MOSUNNY   83  67  58 NW5       29.88F
6HR MIN TEMP:  81; 6HR MAX TEMP:  87;

MADISON        FAIR      79  61  53 NW8       29.91F
MITCHELL       SUNNY     85  62  46 CALM      29.90F
6HR MIN TEMP:  83; 6HR MAX TEMP:  87;

SIOUX FALLS    SUNNY     81  62  52 W5        29.89F
6HR MIN TEMP:  81; 6HR MAX TEMP:  83;

WINNER         FAIR      91  51  25 NW9       29.96S
YANKTON        SUNNY     82  61  47 W3        29.89F
$$

MNZ071-072-080-081-089-090-097-098-300100-
SOUTHWEST MINNESOTA

CITY           SKY/WX    TMP DP  RH WIND       PRES   REMARKS
FAIRMONT       SUNNY     79  61  53 W9        29.84F
JACKSON        SUNNY     77  63  61 W7        29.88S
MARSHALL       SUNNY     79  61  53 NW9       29.85F
6HR MIN TEMP:  79; 6HR MAX TEMP:  81;

MONTEVIDEO     SUNNY     77  64  65 N6        29.85S
PIPESTONE      SUNNY     79  63  57 W7        29.90F
REDWOOD FALLS  SUNNY     78  64  61 W9        29.83S
TRACY          SUNNY     78  64  61 W3        29.86F
WINDOM         SUNNY     77  63  61 W6        29.86F
WORTHINGTON    SUNNY     75  61  60 W7        29.89F
$$

IAZ001>003-012>014-020>022-031-032-NEZ013-014-SDZ071-300100-
NORTHWEST IOWA

CITY           SKY/WX    TMP DP  RH WIND       PRES   REMARKS
DENISON        SUNNY     77  64  65 MISG      29.88F
ESTHERVILLE    SUNNY     77  62  59 W9        29.86F
SIOUX CITY     SUNNY     82  60  47 NW7       29.90F
6HR MIN TEMP:  82; 6HR MAX TEMP:  86;

SPENCER        SUNNY     77  65  66 W7        29.88F HAZE
6HR MIN TEMP:  77; 6HR MAX TEMP:  84;

$$

ABBREVIATIONS USED IN REMARKS
   TC - TEMPERATURE IN CELSIUS
  WCI - WIND CHILL INDEX
   HX - HEAT INDEX
  VSB - VISIBILITY




USA.gov is the U.S. government's official web portal to all federal, state and local government web resources and services.